NOAA 16 DEB, 41266

Orbit data source: Space-Track

NOAA 16 DEB, 41266 is space debris in SSO originally from a launch on Thu, 21 Sep 2000 UTC launched from the Air Force Western Test Range (AFWTR). Debris objects in space refer to the collection of defunct objects orbiting the Earth. Examples of debris include non-operational satellites, rocket bodies, and fragments generated from explosions, collisions, or faulty payload assembly.

Loading next visibility...
Identifier
41266, 2000-055FS
Orbit
SSO
Country
Flag of USUS
Related business
Manufacturer
Unknown
Mission
Spacecraft
Bus & Motor
Unknown
Mass
Unknown
Launch date (UTC)
2000-09-21 (26 years ago)
Launch vehicle
Unknown
Launch site
Air Force Western Test Range (AFWTR)
Object type
Payload
Rocket body
Debris
Shape & HBR
Unknown shape, 0.1 m
Radar Cross Section
Medium (>0.1 m² and <1 m²)

Expand to show TLE details & history
Last TLE update: 6 days ago

TLE from 6 days ago
0 NOAA 16 DEB
1 41266U 00055FS  26223.41276230  .00001457  00000-0  60062-3 0  9993
2 41266  98.6464 288.9725 0004322 193.5046 166.6020 14.28364716548176
Epoch: 2026-08-11T09:54Z
TLE epoch observation values (Epoch: 2026-08-11T09:54:22.662Z)
Latitude
-0.00007°
Longitude
-179.50333°
Altitude
803.148 km
Speed
7.45 km/s
True Right ascension
19h 15m 53s
True Declination
0° 00' 00"
Sunlit
Object was in full shadow at epoch
Visualization orbit readout
Latitude
Unknown
Longitude
Unknown
Altitude
Unknown
Speed
Unknown
Apparent Right ascension
Unknown
Apparent Declination
Unknown
Sunlit
N/A
Visualization observer readout
Local Sidereal Time
16:01:02
Azimuth
Unknown
Elevation
Unknown
Doppler factor
Unknown
Orbital elements
Apogee altitude
797.446 km
Perigee altitude
791.247 km
Semi-major axis
7,172.484 km
Eccentricity
0.00043
Inclination
98.6464°
RAAN
288.9725°
Arg. of periapsis
193.5046°
True anomaly
166.61347°
Mean anomaly
166.602°
Eccentric anomaly
166.60774°
Mean motion
3.57305 °/min
Orbital period
100.75 mins
BSTAR
0.00060062
Loading maneuver chart data...
Computing Atmospheric mass density...
Loading historical data...
Loading historical data...
Loading historical data...
Loading historical data...
Loading historical data...
Loading historical data...
Loading historical data...

Documentation

Showing up to 5 results
|